Voltar ao catálogo

STARLINK-31884

AtivoComunicaçõesVLEO
NORAD 59676·PAYLOAD·🇺🇸 United States

Lançado May 6, 2024 de Cape Canaveral Space Force Station

Loading…

Próximas Passagens (próximas 24 horas)

TLE

AtualizadoSource: CelesTrak SupGP

Época: Sep 14, 2026, 22:10 UTC

1 59676C 24084Y   26257.92409722  .00060816  00000+0  22027-2 0  2570
2 59676  43.0009  53.0840 0001448 274.4405 115.4024 15.27549642    17

Acompanhe STARLINK-31884 em tempo real com AllMySat

Download on the App Store